Location: Brahman Valley
(40.6513°N, 111.8855°W)
Time: 08:10:22
(UTC+00:00)

Tiros 1 despin weight - Pass Details

Date: 12 May 2021
Orbit: 594 x 641 km, 48.2° (Epoch: 22 June)

Event Time Altitude Azimuth Distance (km) Brightness Sun altitude
Rises 05:57:03 0° 273° (W) 2,934 ? -27.8°
Reaches altitude 10° 05:59:32 10° 282° (WNW) 2,029 ? -28.0°
Maximum altitude 06:03:52 36° 349° (N) 1,016 ? -28.3°
Drops below altitude 10° 06:08:12 10° 57° (ENE) 2,031 ? -28.6°
Sets 06:10:41 0° 66° (ENE) 2,937 ? -28.7°
